Location: Dammartin
(48.9032°N, 1.6195°E)
Time: 21:18:17
(UTC+00:00)

Okean O Rocket - Pass Details

Date: 03 February 2023
Orbit: 621 x 643 km, 98.2° (Epoch: 21 March)

Event Time Altitude Azimuth Distance (km) Brightness Sun altitude
Rises 17:40:13 0° 122° (ESE) 2,919 4.6 -8.0°
Reaches altitude 10° 17:42:55 10° 105° (ESE) 2,020 3.7 -8.4°
Maximum altitude 17:45:59 19° 60° (ENE) 1,525 3.0 -8.9°
Drops below altitude 10° 17:49:05 10° 16° (NNE) 2,040 3.9 -9.4°
Sets 17:51:49 0° 359° (N) 2,958 4.9 -9.8°
